Location: Oberwangen
(47.4286°N, 8.9679°E)
Time: 19:16:44
(UTC+00:00)

Cosmos 1825 - Visible Passes

Search period start: 21 October 2021 00:00
Search period end: 31 October 2021 00:00
Orbit: 499 x 506 km, 82.5° (Epoch: 21 October)

Date Brightness Start Highest point End Pass type
(mag) Time Alt. Az. Time Alt. Az. Time Alt. Az.
21 Oct 4.6 18:54:38 10° N 18:55:18 15° N 18:55:18 15° N visible
22 Oct 4.2 18:35:41 10° N 18:36:44 18° N 18:36:44 18° N visible
23 Oct 3.9 18:16:46 10° N 18:18:15 21° NNE 18:18:15 21° NNE visible
24 Oct 3.5 17:57:53 10° N 17:59:51 23° NE 17:59:51 23° NE visible
24 Oct 5.2 19:33:44 10° NW 19:34:37 14° NW 19:34:37 14° NW visible
25 Oct 3.4 17:39:05 10° NNE 17:41:33 23° NE 17:41:33 23° NE visible
25 Oct 4.6 19:14:26 10° NNW 19:16:20 21° WNW 19:16:20 21° WNW visible
26 Oct 3.5 17:20:22 10° NNE 17:23:05 19° ENE 17:23:26 18° ENE visible
26 Oct 3.8 18:55:13 10° NNW 18:58:14 33° WNW 18:58:14 33° WNW visible
27 Oct 3.8 17:01:48 10° NNE 17:03:57 15° ENE 17:05:36 12° E visible
27 Oct 3.1 18:36:04 10° NNW 18:39:42 47° W 18:40:25 40° SW visible
28 Oct 2.5 18:16:58 10° NNW 18:20:42 65° W 18:23:12 20° S visible
29 Oct 2.0 17:57:54 10° N 18:01:42 89° W 18:05:27 10° S visible
30 Oct 2.0 17:38:54 10° N 17:42:40 67° E 17:46:24 10° SSE visible
